Location: Irma
(52.9170°N, 111.2330°W)
Time: 07:37:39
(UTC-07:00)

Daily predictions for brighter satellites

Satellite Brightness Start Highest point End
(mag) Time Altitude Azimuth Time Altitude Azimuth Time Altitude Azimuth
CZ-3A R/B 3.7 16:26:57 10° SSW 16:31:24 48° SE 16:51:19 10° ENE
Timation 2 Rocket 4.3 16:41:13 10° NNW 16:47:57 61° NE 16:54:47 10° SE
IDEFIX/ARIANE 42P 3.1 16:43:26 10° SE 16:48:08 37° ENE 16:52:52 10° N
CZ-2C R/B 4.3 16:46:47 10° NNE 16:50:56 37° E 16:55:07 10° SSE
Cosmos 2297 Rocket 4.2 16:49:07 10° NW 16:52:04 14° NNW 16:55:01 10° NNE
MTI 4.2 16:49:12 10° NNE 16:52:25 45° E 16:55:36 10° S
Cosmos 2341 Rocket 4.4 16:48:40 10° NNW 16:54:53 73° W 17:01:05 10° S
Cosmos 2082 Rocket 2.3 16:49:27 10° NNW 16:55:03 55° NE 17:00:37 10° SE
Cosmos 1500 4.0 16:52:37 10° N 16:56:04 31° ENE 16:59:31 10° SE
CZ-3B DEB 3.3 16:52:29 10° S 16:56:07 32° ESE 17:03:56 10° ENE
Cosmos 1378 Rocket 3.8 16:53:13 10° SSW 16:57:31 75° WNW 17:01:53 10° N
Cosmos 2227 Rocket 4.2 16:55:12 10° NW 16:57:43 13° N 17:00:15 10° NNE
Cosmos 1743 4.1 16:55:40 10° NNE 16:58:34 19° ENE 17:01:25 10° ESE
Meteor 2-19 Rocket 4.4 16:52:49 10° N 16:58:55 76° ENE 17:04:59 10° SSE
YAOGAN 1 3.1 16:56:01 10° SE 16:59:58 36° ENE 17:03:57 10° N
Okean 3 3.7 16:58:24 10° SSW 17:02:39 73° W 17:06:56 10° N
Intercosmos 25 4.4 17:00:46 10° NNE 17:03:05 17° ENE 17:05:20 10° ESE
PAYLOAD A 4.0 16:59:27 10° SSE 17:04:21 65° ENE 17:09:29 10° N
Cosmos 372 Rocket 4.2 17:01:19 10° SSW 17:06:34 78° WNW 17:11:51 10° NNE
RESURS DK-1 4.4 17:05:38 10° N 17:07:18 12° NNE 17:08:55 10° NE
Meteor 1-27 Rocket 4.4 17:03:12 10° SSW 17:08:51 56° WNW 17:14:25 10° N
Cosmos 1455 Rocket 3.0 17:05:01 10° N 17:09:27 75° ENE 17:13:53 10° SSE
CZ-2C R/B 2.7 17:04:46 10° SE 17:09:43 52° ENE 17:14:46 10° N
Cosmos 2263 Rocket 3.4 17:04:56 10° WSW 17:10:06 36° NW 17:15:20 10° NNE
NOSS 3-4 (A) 3.8 17:06:42 10° NW 17:13:29 67° NE 17:20:44 10° ESE
NOSS 3-4 (C) 3.8 17:06:47 10° NW 17:13:36 66° NE 17:20:50 10° ESE
IRS-1A Rocket 4.3 17:09:11 10° SSE 17:14:41 86° WSW 17:20:19 10° NNW
ERBS 2.6 17:14:27 10° WNW 17:17:47 48° NNE 17:20:42 13° E
CSL-04 Rocket 4.3 17:12:53 10° S 17:18:20 62° WSW 17:23:53 10° NNW
Cosmos 407 Rocket 4.3 17:14:45 10° NNW 17:19:13 29° NE 17:23:41 10° ESE
Cosmos 1484 Rocket 3.6 17:21:02 10° ESE 17:24:08 26° ENE 17:27:17 10° N
BREEZE M DEB (TANK) 3.0 17:21:43 10° W 17:24:20 51° S 17:30:32 10° ESE
NOSS 3-3 (A) 4.4 17:19:30 10° SSW 17:25:32 51° SE 17:31:16 14° NE
NOSS 3-3 (C) 4.4 17:19:37 10° SSW 17:25:38 50° SE 17:31:21 14° NE
SL-16 R/B 3.8 17:22:42 10° N 17:28:18 38° WNW 17:33:55 10° SW
Cosmos 1975 2.8 17:25:18 10° N 17:29:25 81° E 17:33:27 10° SSE
EO 1 Del DPAF 3.8 17:26:03 10° N 17:29:54 61° WNW 17:33:44 10° SSW
Cosmos 1809 Rocket 4.4 17:24:04 10° N 17:30:13 64° ENE 17:36:17 10° SSE
Cosmos 1844 Rocket 2.9 17:27:06 10° SW 17:32:43 74° WNW 17:38:25 10° NNE
SMAP 3.0 17:28:42 10° SSE 17:33:20 76° ENE 17:38:02 10° NNW
ATLAS CENTAUR R/B 3.3 17:35:26 10° NW 17:38:26 17° N 17:40:28 13° NNE
Tiangong 1 3.8 17:37:56 10° S 17:38:47 11° S 17:39:39 10° SSE
CORIOLIS 4.1 17:35:09 10° SSE 17:40:32 80° ENE 17:45:57 10° NNW
ISS -3.2 17:38:13 10° WSW 17:41:31 69° S 17:43:28 22° E
Cosmos 1812 2.6 17:38:01 10° S 17:41:54 85° E 17:45:47 10° NNE
COSMOS 2487 3.6 17:39:50 10° NW 17:43:20 48° WSW 17:46:48 10° S
Okean 1-7 Rocket 4.3 17:40:23 10° SSE 17:44:21 31° E 17:47:08 16° NE
CZ-4 R/B 4.4 17:41:44 10° SSE 17:45:52 70° ENE 17:50:02 10° N
CZ-4 R/B 1.9 17:42:46 10° S 17:46:53 66° WSW 17:50:58 10° NNW
Meteor 2-4 Rocket 4.5 17:44:21 10° SE 17:48:44 26° E 17:51:12 19° NE
USA 116 4.4 17:46:02 10° NNE 17:51:27 68° ESE 17:56:33 10° S
Resurs 01 Rocket 3.4 17:54:26 15° NNE 17:54:26 15° NNE 17:55:44 10° NNE
Cosmos 1934 Rocket 4.2 17:47:15 10° N 17:53:13 46° ENE 17:59:13 10° SE
SPOT 3 Rocket 3.9 17:50:49 10° S 17:55:59 71° WSW 18:01:11 10° NNW
Cosmos 1606 Rocket 4.0 17:52:55 10° N 17:57:09 38° ENE 18:01:21 10° SE
Meteor 2-21 4.5 17:51:27 10° NNW 17:57:40 88° W 18:03:48 10° S
MSX 3.8 17:53:05 10° SSE 17:58:50 86° ENE 18:04:37 10° NNW
Cosmos 1535 Rocket 4.5 17:57:27 10° N 18:03:45 64° ENE 18:09:55 10° SSE
Cosmos 1844 4.2 18:00:48 10° SW 18:06:17 58° NW 18:11:03 14° NNE
COSMO-SKYMED 1 3.2 18:05:16 30° ENE 18:06:22 34° E 18:10:21 10° SSE
ALOS 4.0 18:11:12 16° NNE 18:11:12 16° NNE 18:12:38 10° N
Cosmos 1666 2.7 18:06:37 10° N 18:10:26 53° ENE 18:14:14 10° SSE
Cosmos 2297 3.7 18:05:44 10° SSW 18:11:16 61° ESE 18:14:37 24° NE
Cosmos 1190 Rocket 3.9 18:06:13 10° NNW 18:11:30 70° ENE 18:16:42 10° SE
METEOR-M 4.4 18:07:13 10° SE 18:12:13 43° ENE 18:17:16 10° N
Meteor 2-14 Rocket 4.4 18:08:29 10° NNW 18:14:41 88° W 18:20:50 10° S
Cosmos 2239 Rocket 4.4 18:09:18 10° N 18:15:34 77° ENE 18:21:44 10° SSE
NOSS 2-1 (D) 4.1 18:12:31 10° SSW 18:16:10 37° ESE 18:16:48 35° ESE
Cosmos 921 Rocket 3.0 18:12:24 10° S 18:16:39 60° ESE 18:18:23 34° NE
NOSS 2-1 (C) 4.1 18:13:11 10° S 18:16:51 37° ESE 18:17:27 35° ESE
Cosmos 1025 Rocket 3.3 18:14:27 10° SSE 18:18:37 43° E 18:19:24 39° ENE
Cosmos 2278 Rocket 2.4 18:13:53 10° SW 18:19:32 70° NW 18:23:45 18° NNE
Okean 1 4.0 18:16:05 10° SSW 18:20:05 54° WNW 18:24:06 10° N
GEOS 3 Rocket 3.5 18:17:19 19° ESE 18:21:00 73° NE 18:26:09 10° NW
ASTRO F (AKARI) 4.1 18:22:14 66° ESE 18:22:14 66° ESE 18:25:16 10° S
Thor Agena Rocket 3.6 18:17:11 10° NNE 18:22:26 82° WNW 18:27:41 10° SSW
Cosmos 1346 Rocket 2.9 18:19:12 10° SSW 18:23:04 71° WNW 18:25:43 19° N
IDEFIX/ARIANE 42P 3.8 18:22:48 10° SSW 18:27:43 42° W 18:32:40 10° NNW
Cosmos 1821 Rocket 3.9 18:22:06 10° N 18:28:15 88° E 18:34:21 10° S
Cosmos 1833 Rocket 3.9 18:24:09 10° NW 18:29:29 44° WSW 18:34:47 10° S
Cosmos 2058 Rocket 3.1 18:28:50 10° N 18:33:16 54° ENE 18:34:10 45° ESE
Cosmos 1743 3.7 18:30:56 10° NNW 18:34:42 48° W 18:38:25 10° S
NOSS 2-1 (E) 3.7 18:31:37 10° SSW 18:35:30 49° SE 18:35:39 49° ESE
YAOGAN 1 4.4 18:32:13 10° SSW 18:36:07 32° W 18:40:03 10° NNW
SKYMED 3 4.5 18:35:39 50° NE 18:36:33 65° ESE 18:40:53 10° S
Cosmos 2297 Rocket 4.1 18:35:53 10° NNW 18:38:44 14° NNE 18:38:57 14° NNE
Cosmos 2082 Rocket 3.9 18:33:54 10° NW 18:38:56 34° WSW 18:43:58 10° S
Cosmos 1605 Rocket 3.9 18:32:40 10° N 18:39:00 66° ENE 18:45:10 10° SSE
GENESIS II 4.2 18:36:01 10° NW 18:40:03 69° NE 18:40:03 69° NE
Cosmos 2227 Rocket 4.1 18:41:09 10° NNW 18:44:02 15° NNE 18:44:02 15° NNE
USA 234 3.3 18:43:35 39° E 18:45:58 61° SE 18:52:26 10° SW
RESURS DK-1 3.8 18:42:36 10° NNW 18:44:52 26° N 18:44:52 26° N
SKYMED 2 3.5 18:53:52 62° N 18:54:36 87° WNW 18:58:57 10° SSW
ERBS 3.2 18:51:16 10° WNW 18:54:06 48° WSW 18:54:06 48° WSW
Cosmos 2263 Rocket 4.3 18:52:34 10° NW 18:55:49 15° NNW 18:58:15 12° N
Timation 1 Rocket 4.3 18:51:54 10° SW 18:57:53 85° WNW 19:00:10 41° NNE
Cosmos 1484 Rocket 4.4 18:55:08 10° SSW 18:58:32 34° W 19:01:58 10° NNW
SL-8 R/B 4.1 18:54:49 10° WSW 18:59:26 51° S 18:59:45 50° SSE
Cosmos 407 Rocket 3.9 18:56:32 10° NNW 19:01:36 60° WSW 19:06:40 10° S
FengYun 1-2 T 4.2 19:00:38 53° ESE 19:01:49 66° ENE 19:07:27 10° NNW
Spot 2 Rocket 3.6 19:05:41 60° NNE 19:05:41 60° NNE 19:10:03 10° NNW
Cosmos 2056 Rocket 3.4 19:04:43 10° SSW 19:10:04 80° ESE 19:10:05 80° ESE
Cosmos 676 Rocket 4.3 19:08:01 10° NNW 19:13:12 66° WSW 19:15:58 27° S
Cosmos 1726 Rocket 4.4 19:11:08 10° NNW 19:15:27 50° W 19:19:45 10° S
Cosmos 1954 Rocket 4.0 19:12:22 10° NNW 19:17:34 74° WSW 19:18:28 59° S
ISS -0.9 19:14:38 10° W 19:16:09 24° W 19:16:09 24° W
ATLAS CENTAUR R/B 3.6 19:15:19 10° NNW 19:16:46 17° NNW 19:16:46 17° NNW
Cosmos 2369 Rocket 4.1 19:17:31 10° S 19:18:41 16° S 19:18:41 16° S
Cosmos 1624 Rocket 4.0 19:17:40 10° SSW 19:22:49 79° WNW 19:22:49 79° WNW
Cosmos 1727 Rocket 4.0 19:18:01 10° S 19:23:21 64° SSE 19:23:21 64° SSE
Resurs 01 Rocket 3.8 19:32:01 18° NNW 19:32:01 18° NNW 19:33:09 10° NNW
CZ-3B DEB 3.2 19:23:11 10° W 19:28:50 84° N 19:32:16 49° ENE
Cosmos 1371 Rocket 4.4 19:23:43 10° SW 19:29:02 62° WNW 19:29:40 58° NNW
Meteor 1-23 Rocket 4.5 19:24:39 10° SSW 19:30:18 65° WNW 19:32:13 41° N
Meteor 2-4 Rocket 4.2 19:26:08 10° SSW 19:31:23 55° WNW 19:33:20 36° NNW
Cosmos 1140 Rocket 3.8 19:26:25 10° NNW 19:30:43 60° NW 19:30:43 60° NW
COSMO-SKYMED 1 4.1 19:42:29 33° WNW 19:42:32 33° WNW 19:46:27 10° SW
FENGYUN 3A 4.5 19:46:19 44° NNW 19:46:19 44° NNW 19:49:58 10° NNW
BREEZE-M DEB (TANK) 3.6 19:34:13 10° W 19:49:17 83° SSW 19:49:17 83° SSW
Cosmos 2278 Rocket 4.1 20:00:20 10° W 20:04:40 22° NNW 20:05:37 21° NNW
USA 234 3.9 20:30:56 51° W 20:30:56 51° W 20:35:41 10° W
Cosmos 2344 4.5 21:00:57 10° NW 21:09:03 67° NNW 21:09:03 67° NNW
CZ-3B DEB 4.5 21:55:31 10° WNW 22:00:00 45° WNW 22:00:00 45° WNW
